[[{"header":{"parameterUnit":"m.s-1","parameterCategory":1,"la1":30.2991,"la2":30.254,"lo1":-89.0895,"lo2":-89.0444,"dy":0.0017,"dx":0.0017,"nx":28,"ny":28,"refTime":"2025-07-07T21:00:00:Z","depth":0,"parameterNumber":2,"parameterNumberName":"U-component_of_WINDS"},"data":[0,0,0,0,0,0,0,0,0,0,0,0,0,0,0,0,0,0,0,0,0,0,0,0,0,0,0,0,0,0,0,0,0,0,0,0,0,0,0,0,0,0,0,0,0,0,0,0,0,0,0,0,0,0,0,0,0,0,3.7856,3.7857,0,3.801,3.8012,3.8014,3.794,3.7936,3.7932,3.7928,3.8092,3.8099,3.8107,0,0,0,0,0,0,0,0,0,0,0,0,0,3.7499,3.7506,3.7855,3.7857,3.7859,3.801,3.8012,3.8014,3.7941,3.7936,3.7931,3.7926,3.8089,3.8098,3.8108,0,0,0,0,0,0,0,0,0,0,0,0,0,3.7654,3.7508,3.7855,3.7841,3.7841,3.8009,3.8012,3.8015,3.7942,3.7936,3.793,3.7924,3.8086,3.8097,3.8109,3.8303,0,0,3.8146,3.8151,0,0,0,0,0,0,0,0,3.7645,3.7667,3.7841,3.7842,3.7842,3.7949,3.7946,3.8111,3.7943,3.7904,3.7928,3.7921,3.8049,3.8064,3.8106,3.831,3.8317,3.8147,3.8155,3.816,3.8163,0,0,0,0,0,0,0,3.7635,3.766,3.7917,3.7843,3.7844,3.7827,3.7843,3.7977,3.8008,3.7906,3.7901,3.792,3.8049,3.8095,3.811,3.832,3.8147,3.8158,3.8165,3.817,3.8688,3.8694,0,0,0,0,0,0,3.7624,3.7652,3.7912,3.7921,3.7727,3.7838,3.7856,3.7921,3.8006,3.8013,3.7925,3.7916,3.8077,3.8096,3.8115,3.8345,3.816,3.8171,3.8178,3.8682,3.8689,3.8696,0,0,0,0,0,0,3.7617,3.7648,3.7906,3.7785,3.7817,3.7851,3.7925,3.7927,3.7973,3.8021,3.8026,3.7967,3.8073,3.8098,3.8256,3.835,3.8176,3.8187,3.8674,3.8684,3.8693,3.8808,0,0,0,0,0,0,3.7607,3.7646,3.7719,3.7787,3.7823,3.8043,3.7931,3.7935,3.7994,3.7984,3.8061,3.8068,3.807,3.8238,3.8268,3.8363,3.8197,3.8666,3.8678,3.869,3.8796,3.8821,3.8842,0,0,0,0,0,3.7594,3.7747,3.7723,3.7755,3.7915,3.8049,3.8069,3.8068,3.8002,3.8076,3.8106,3.8065,3.8335,3.8255,3.8288,3.8388,3.866,3.8675,3.8689,3.8786,3.8816,3.8841,0,0,0,0,0,0,3.7691,3.7756,3.773,3.7909,3.7974,3.8036,3.8129,3.81,3.8186,3.8173,3.8169,3.8187,3.835,3.8385,3.8295,3.8579,3.8487,3.8509,3.855,3.8579,3.8601,3.8589,3.8207,0,0,0,0,0,3.7733,3.7834,3.7886,3.8039,3.8072,3.8096,3.8154,3.8146,3.8214,3.8241,3.8283,3.8351,3.8451,3.8517,3.8612,3.8801,3.8816,3.8886,3.8909,3.8928,3.8947,3.9048,3.9079,3.8745,3.8745,3.8744,0,0,3.7821,3.7869,3.7934,3.806,3.8109,3.8214,3.8119,3.8236,3.8314,3.826,3.841,3.8443,3.8519,3.8693,3.8771,3.8727,3.9042,3.8946,3.8961,3.897,3.9066,3.9097,3.9126,3.8755,3.8753,3.8751,0,0,3.8035,3.8082,3.8214,3.8264,3.8339,3.8353,3.8384,3.8451,3.847,3.862,3.8581,3.8675,3.8847,3.8902,3.8953,3.9185,3.9151,3.9217,3.9336,3.9434,3.946,3.9484,3.9565,3.9595,3.9235,3.9236,3.9236,0,3.8136,3.8292,3.8286,3.8404,3.846,3.8414,3.8547,3.8597,3.87,3.874,3.8688,3.8901,3.8949,3.9134,3.9191,3.9234,3.9269,3.9208,3.9457,3.948,3.9502,3.958,3.9611,3.9243,3.9242,3.9241,3.9241,0,3.8411,3.8521,3.8618,3.8716,3.8783,3.8909,3.8921,3.899,3.8977,3.8997,3.915,3.9205,3.9309,3.9353,3.9342,3.9536,3.9506,3.9456,3.9364,3.9541,3.9614,3.9644,3.9254,3.9251,3.9249,3.9247,0,0,3.8692,3.8782,3.8818,3.8861,3.8939,3.9024,3.9147,3.9246,3.9305,3.9377,3.948,3.9626,3.9579,3.9637,3.9632,3.9718,3.9897,3.9658,3.9659,3.9699,4.0112,4.0148,4.0183,3.9875,3.988,3.9885,4.0105,0,3.8911,3.9124,3.9121,3.9319,3.9419,3.9375,3.9482,3.9542,3.9564,3.9652,3.9676,3.9779,3.9711,3.9744,3.9828,3.9858,3.998,3.9842,3.997,3.9975,3.9952,4.0221,4.0261,4.0466,4.0134,4.0139,4.0142,0,3.9195,3.9273,3.9481,3.9542,3.9584,3.968,3.977,3.9855,3.9922,3.9931,3.9994,3.9975,4.01,4.0004,4.0177,4.0083,4.0135,4.0158,4.0165,4.0177,4.0069,4.0239,4.0532,4.0562,4.0188,4.0184,4.0181,0,3.9377,3.9535,3.9679,3.9717,3.9792,3.9861,3.9895,3.9956,4.0015,4.0094,4.0132,4.0226,4.0277,4.035,4.0357,4.0287,4.053,4.0435,4.0541,4.0541,4.0594,4.0591,4.0898,4.063,4.063,4.0629,4.0629,0,3.9621,3.9749,3.9761,3.985,3.9992,3.9987,4.0128,4.0157,4.0211,4.0305,4.0273,4.0362,4.0366,4.0457,4.0463,4.0604,4.0628,4.0639,4.0639,4.0641,4.064,4.0675,4.0661,4.0637,4.0636,4.0634,4.0633,0,3.9848,3.9861,4.0015,4.0072,4.009,4.0192,4.0242,4.0326,4.0344,4.0463,4.049,4.0518,4.0624,4.0637,4.0762,4.0765,4.0934,4.092,4.0911,4.0909,4.1013,4.1003,4.1354,4.1399,4.1102,4.1105,4.1107,0,4.0002,4.0099,4.0167,4.0226,4.0264,4.0361,4.042,4.0418,4.0482,4.0564,4.0638,4.074,4.0821,4.0992,4.1024,4.1118,4.1105,4.1221,4.1119,4.1117,4.1105,4.1098,4.1107,4.1241,4.1244,4.1247,4.1249,0,4.0274,4.0275,4.0361,4.0449,4.052,4.059,4.0656,4.0707,4.0714,4.0787,4.0892,4.0955,4.108,4.1181,4.1274,4.131,4.1282,4.1281,4.131,4.1313,4.1303,4.1308,4.0964,4.1273,4.127,4.1269,4.1267,4.1266,4.0469,4.0552,4.0612,4.0708,4.0757,4.0818,4.0899,4.0926,4.1013,4.1113,4.1108,4.1224,4.1287,4.1408,4.1451,4.1542,4.1504,4.1547,4.1558,4.1568,4.1577,4.1289,4.156,4.1559,4.1558,4.1558,4.1557,0,4.0738,4.0773,4.0862,4.0953,4.1029,4.0992,4.1062,4.1128,4.1231,4.1291,4.137,4.1491,4.1589,4.1628,4.1723,4.1789,4.1778,4.1814,4.1808,4.1817,4.1607,4.1571,4.1821,4.1821,4.1821,4.1821,4.1821,4.1821,4.0886,4.1025,4.1033,4.1195,4.123,4.1342,4.1385,4.1441,4.1488,4.1624,4.1704,4.1728,4.178,4.1878,4.1966,4.1974,4.2011,4.2052,4.2056,4.1859,4.1832,4.1807,4.1773,4.2061,4.2061,4.2257,4.2259,4.2261]},{"header":{"parameterUnit":"m.s-1","parameterCategory":1,"la1":30.2991,"la2":30.254,"lo1":-89.0895,"lo2":-89.0444,"dy":0.0017,"dx":0.0017,"nx":28,"ny":28,"refTime":"2025-07-07T21:00:00:Z","depth":0,"parameterNumber":3,"parameterNumberName":"V-component_of_WINDS"},"data":[0,0,0,0,0,0,0,0,0,0,0,0,0,0,0,0,0,0,0,0,0,0,0,0,0,0,0,0,0,0,0,0,0,0,0,0,0,0,0,0,0,0,0,0,0,0,0,0,0,0,0,0,0,0,0,0,0,0,0.6479,0.6479,0,0.6516,0.6517,0.6517,0.6505,0.6504,0.6503,0.6502,0.6541,0.6543,0.6545,0,0,0,0,0,0,0,0,0,0,0,0,0,0.6397,0.6398,0.6479,0.6479,0.648,0.6516,0.6517,0.6517,0.6505,0.6504,0.6503,0.6502,0.6541,0.6543,0.6545,0,0,0,0,0,0,0,0,0,0,0,0,0,0.6433,0.6399,0.6479,0.6478,0.6478,0.6516,0.6517,0.6517,0.6505,0.6504,0.6502,0.6501,0.654,0.6543,0.6546,0.6587,0,0,0.6554,0.6555,0,0,0,0,0,0,0,0,0.6431,0.6436,0.6477,0.6478,0.6478,0.6504,0.6502,0.6541,0.6505,0.6495,0.6502,0.6501,0.653,0.6534,0.6543,0.6589,0.659,0.6554,0.6556,0.6557,0.6558,0,0,0,0,0,0,0,0.6428,0.6434,0.6494,0.6478,0.6479,0.6476,0.6479,0.6509,0.6519,0.6496,0.6495,0.6499,0.653,0.6541,0.6544,0.6591,0.6554,0.6556,0.6558,0.6559,0.6671,0.6673,0,0,0,0,0,0,0.6426,0.6432,0.6492,0.6495,0.6451,0.6478,0.6482,0.6497,0.6519,0.6521,0.65,0.6499,0.6537,0.6541,0.6546,0.6596,0.6557,0.6559,0.6561,0.667,0.6672,0.6673,0,0,0,0,0,0,0.6424,0.6431,0.6491,0.6463,0.6471,0.6481,0.6498,0.6499,0.6509,0.6522,0.6524,0.6509,0.6536,0.6542,0.6576,0.6597,0.6561,0.6563,0.6668,0.6671,0.6672,0.6696,0,0,0,0,0,0,0.6422,0.6431,0.6446,0.6464,0.6472,0.6521,0.6499,0.65,0.6514,0.6512,0.6531,0.6533,0.6535,0.6573,0.6579,0.66,0.6565,0.6667,0.6669,0.6672,0.6693,0.6698,0.6702,0,0,0,0,0,0.6419,0.6452,0.6447,0.6455,0.6492,0.6522,0.6527,0.6529,0.6516,0.6532,0.654,0.6533,0.6593,0.6576,0.6584,0.6605,0.6665,0.6669,0.6672,0.6691,0.6697,0.6702,0,0,0,0,0,0,0.6437,0.6454,0.6449,0.6489,0.6504,0.652,0.6541,0.6536,0.6555,0.6553,0.6554,0.6559,0.6594,0.6603,0.6584,0.6646,0.6627,0.6632,0.6639,0.6645,0.665,0.6648,0.6567,0,0,0,0,0,0.6446,0.6469,0.6482,0.6516,0.6524,0.6531,0.6544,0.6544,0.656,0.6567,0.6577,0.6593,0.6616,0.6631,0.6652,0.6694,0.6698,0.6712,0.6717,0.6721,0.6725,0.6747,0.6754,0.6683,0.6683,0.6683,0,0,0.6464,0.6476,0.6491,0.652,0.6532,0.6556,0.6537,0.6563,0.6581,0.6571,0.6604,0.6612,0.663,0.6668,0.6686,0.6677,0.6745,0.6724,0.6727,0.673,0.6751,0.6758,0.6764,0.6685,0.6685,0.6684,0,0,0.651,0.6521,0.655,0.6562,0.658,0.6584,0.6591,0.6608,0.6613,0.6646,0.6639,0.666,0.6699,0.6712,0.6724,0.6773,0.6767,0.678,0.6805,0.6827,0.6832,0.6837,0.6855,0.6862,0.6784,0.6784,0.6784,0,0.6531,0.6566,0.6566,0.6593,0.6606,0.6597,0.6627,0.6638,0.6663,0.6672,0.6661,0.6709,0.6721,0.6762,0.6773,0.6783,0.6791,0.6778,0.6831,0.6836,0.6841,0.6858,0.6865,0.6785,0.6785,0.6785,0.6785,0,0.6591,0.6616,0.6637,0.666,0.6675,0.6703,0.6708,0.6723,0.6721,0.6726,0.676,0.6773,0.6797,0.6806,0.6805,0.6847,0.6841,0.6831,0.6812,0.6849,0.6865,0.6872,0.6787,0.6787,0.6787,0.6786,0,0,0.6651,0.6673,0.6681,0.6691,0.6709,0.6729,0.6756,0.6779,0.6792,0.6808,0.6832,0.6864,0.6854,0.6867,0.6867,0.6886,0.6924,0.6873,0.6874,0.6883,0.6972,0.698,0.6988,0.692,0.6921,0.6922,0.697,0,0.6699,0.6747,0.6747,0.6792,0.6814,0.6805,0.6829,0.6843,0.6848,0.6868,0.6874,0.6897,0.6882,0.689,0.6908,0.6916,0.6942,0.6912,0.6942,0.6943,0.6939,0.6996,0.7005,0.7051,0.6977,0.6978,0.6979,0,0.6762,0.678,0.6827,0.6841,0.6851,0.6872,0.6893,0.6912,0.6927,0.6929,0.6943,0.694,0.6967,0.6947,0.6985,0.6964,0.6976,0.6981,0.6983,0.6987,0.6964,0.7003,0.7065,0.7072,0.6988,0.6988,0.6987,0,0.6803,0.6838,0.6871,0.6879,0.6897,0.6912,0.692,0.6934,0.6947,0.6965,0.6974,0.6995,0.7006,0.7022,0.7024,0.7009,0.7063,0.7042,0.7066,0.7066,0.7079,0.7079,0.7145,0.7085,0.7085,0.7085,0.7084,0,0.6857,0.6886,0.6889,0.6909,0.6941,0.694,0.6972,0.6978,0.6991,0.7012,0.7005,0.7025,0.7026,0.7046,0.7048,0.7079,0.7084,0.7087,0.7088,0.7089,0.7088,0.7097,0.7095,0.7086,0.7086,0.7086,0.7085,0,0.6908,0.6911,0.6946,0.6959,0.6963,0.6986,0.6997,0.7016,0.702,0.7047,0.7053,0.706,0.7083,0.7086,0.7114,0.7115,0.7153,0.7149,0.7148,0.7148,0.7172,0.717,0.7248,0.7258,0.719,0.719,0.7191,0,0.6943,0.6965,0.698,0.6994,0.7003,0.7024,0.7038,0.7037,0.7052,0.707,0.7087,0.7109,0.7128,0.7165,0.7173,0.7193,0.7191,0.7217,0.7194,0.7194,0.7192,0.7191,0.7194,0.7222,0.7222,0.7223,0.7224,0,0.7006,0.7006,0.7025,0.7045,0.7061,0.7077,0.7092,0.7103,0.7104,0.7121,0.7144,0.7158,0.7186,0.7209,0.7229,0.7237,0.7231,0.723,0.7237,0.7239,0.7238,0.7239,0.7161,0.7229,0.7228,0.7228,0.7228,0.7227,0.705,0.7069,0.7083,0.7105,0.7115,0.7129,0.7148,0.7153,0.7173,0.7195,0.7193,0.722,0.7233,0.726,0.7269,0.729,0.7281,0.7291,0.7294,0.7296,0.7299,0.7233,0.7293,0.7293,0.7293,0.7293,0.7293,0,0.7113,0.7121,0.7141,0.7161,0.7178,0.7169,0.7185,0.72,0.7223,0.7236,0.7254,0.7281,0.7302,0.7311,0.7332,0.7346,0.7344,0.7352,0.7352,0.7353,0.7305,0.7297,0.7354,0.7354,0.7353,0.7353,0.7353,0.7353,0.7148,0.7179,0.7181,0.7218,0.7225,0.7251,0.726,0.7273,0.7283,0.7313,0.7331,0.7336,0.7347,0.7368,0.7388,0.7389,0.7398,0.7407,0.7408,0.7363,0.7357,0.7351,0.7344,0.7409,0.7409,0.7455,0.7455,0.7456]}]]